Change the Weather History Date:

Sunday, March 9, 2014

  Actual Average Record
Temperature  
Mean Temperature 44 °F -  
Max Temperature 57 °F 49 °F 70 °F (2013)
Min Temperature 30 °F 33 °F 17 °F (1998)
Degree Days  
Heating Degree Days 22    
Moisture  
Dew Point 33 °F    
Average Humidity 77    
Maximum Humidity 100    
Minimum Humidity 34    
Precipitation  
Precipitation 0.00 in - - ()
Sea Level Pressure  
Sea Level Pressure 30.23 in    
Wind  
Wind Speed 5 mph (SSW)    
Max Wind Speed 8 mph    
Max Gust Speed 17 mph    
Visibility 10 miles    
Events      
Averages and records for this station are not official NWS values.
T = Trace of Precipitation, MM = Missing Value Source: NWS Daily Summary

Daily Weather History Graph

Daily Weather History Graph

Search for Another Location

Airport or City:

Trip Planner

Search our weather history database for the weather conditions in past years. The results will help you decide how hot, cold, wet, or windy it might be!

Date:

Astronomy

Mar. 09, 2014 Rise Set
Actual Time 7:28 AM CDT 7:10 PM CDT
Civil Twilight 7:02 AM CDT 7:36 PM CDT
Nautical Twilight 6:32 AM CDT 8:06 PM CDT
Astronomical Twilight 6:01 AM CDT 8:37 PM CDT
Moon 1:07 PM CDT (3/9) 3:50 AM CDT (3/9)
Length of Visible Light 12h 33m
Length of Day
11h 41m
First Quarter, 61% of the Moon is Illuminated
Mar 9
First Quarter
Mar 16
Full
Mar 23
Last Quarter
Mar 30
New
Apr 7
First Quarter

Hourly Weather History & Observations

Time (CDT) Temp. Windchill Dew Point Humidity Pressure Visibility Wind Dir Wind Speed Gust Speed Precip Events Conditions
12:58 AM 33.8 °F 28.6 °F 33.8 °F 100% 30.32 in 9.0 mi North 5.8 mph - N/A   Overcast
1:58 AM 33.4 °F 30.4 °F 33.4 °F 100% 30.34 in 9.0 mi North 3.5 mph - N/A   Overcast
3:58 AM 32.9 °F 29.8 °F 32.7 °F 99% 30.33 in 10.0 mi North 3.5 mph - N/A   Overcast
4:08 AM 32.0 °F - 32.0 °F 100% 30.28 in 10.0 mi Calm Calm - N/A   Overcast
4:43 AM 32.0 °F - 32.0 °F 100% 30.27 in 10.0 mi NE 2.3 mph - N/A   Overcast
4:58 AM 32.9 °F - 32.2 °F 97% 30.32 in 10.0 mi Calm Calm - N/A   Overcast
5:58 AM 32.2 °F - 32.0 °F 99% 30.33 in 9.0 mi NNW 2.3 mph - N/A   Overcast
6:58 AM 31.5 °F - 31.5 °F 100% 30.33 in 8.0 mi South 2.3 mph - N/A   Overcast
7:58 AM 30.6 °F 25.8 °F 30.6 °F 100% 30.32 in 6.0 mi South 4.6 mph - N/A   Overcast
8:58 AM 32.0 °F - 32.0 °F 100% 30.34 in 8.0 mi Variable 2.3 mph - N/A   Overcast
9:58 AM 33.3 °F 27.9 °F 32.9 °F 99% 30.35 in 8.0 mi SSE 5.8 mph - N/A   Overcast
10:53 AM 37.4 °F 32.1 °F 35.6 °F 93% 30.29 in 10.0 mi South 6.9 mph - N/A   Scattered Clouds
10:58 AM 37.9 °F 32.7 °F 34.7 °F 88% 30.33 in 10.0 mi South 6.9 mph - N/A   Scattered Clouds
11:58 AM 42.3 °F 37.9 °F 34.2 °F 73% 30.31 in 10.0 mi Variable 6.9 mph - N/A   Clear
12:58 PM 45.9 °F 42.3 °F 33.4 °F 62% 30.29 in 10.0 mi South 6.9 mph - N/A   Clear
1:58 PM 50.5 °F - 31.5 °F 48% 30.25 in 10.0 mi Variable 5.8 mph - N/A   Clear
2:58 PM 54.3 °F - 30.9 °F 41% 30.19 in 10.0 mi Variable 6.9 mph - N/A   Clear
3:58 PM 56.1 °F - 31.8 °F 40% 30.15 in 10.0 mi WSW 8.1 mph 17.3 mph N/A   Clear
4:58 PM 57.6 °F - 28.9 °F 34% 30.11 in 10.0 mi Variable 6.9 mph - N/A   Clear
5:58 PM 57.9 °F - 29.3 °F 34% 30.09 in 10.0 mi Variable 3.5 mph - N/A   Clear
6:58 PM 55.6 °F - 28.4 °F 35% 30.09 in 10.0 mi SW 8.1 mph - N/A   Clear
7:58 PM 50.0 °F - 29.3 °F 45% 30.09 in 10.0 mi SSW 5.8 mph - N/A   Clear
8:58 PM 46.0 °F 43.1 °F 32.4 °F 59% 30.10 in 10.0 mi South 5.8 mph - N/A   Clear
9:58 PM 45.5 °F 42.5 °F 36.7 °F 71% 30.10 in 10.0 mi SSW 5.8 mph - N/A   Clear
10:58 PM 45.0 °F 41.2 °F 40.1 °F 83% 30.08 in 10.0 mi SSW 6.9 mph - N/A   Clear
11:58 PM 43.9 °F 40.5 °F 41.9 °F 93% 30.06 in 10.0 mi SW 5.8 mph - N/A   Clear
12:58 AM 44.8 °F 40.4 °F 44.6 °F 99% 30.04 in 10.0 mi SW 8.1 mph - N/A   Clear